Weather History for New Bedford, MA

Change the Weather History Date:

Friday, December 28, 2012

  Actual Average Record
Temperature  
Mean Temperature 32 °F -  
Max Temperature 37 °F 38 °F 57 °F (1982)
Min Temperature 27 °F 25 °F 8 °F (1993)
Degree Days  
Heating Degree Days 33    
Moisture  
Dew Point 22 °F    
Average Humidity 68    
Maximum Humidity 80    
Minimum Humidity 52    
Precipitation  
Precipitation 0.01 in - - ()
Sea Level Pressure  
Sea Level Pressure 29.88 in    
Wind  
Wind Speed 10 mph (WNW)    
Max Wind Speed 16 mph    
Max Gust Speed 28 mph    
Visibility 10 miles    
Events      
Averages and records for this station are not official NWS values.
T = Trace of Precipitation, MM = Missing Value Source: NWS Daily Summary

Daily Weather History Graph

Daily Weather History Graph

Search for Another Location

Airport:

Trip Planner

Search our weather history database for the weather conditions in past years. The results will help you decide how hot, cold, wet, or windy it might be!

Date:

Astronomy

Dec. 28, 2012 Rise Set
Actual Time 7:10 AM EST 4:21 PM EST
Civil Twilight 6:38 AM EST 4:52 PM EST
Nautical Twilight 6:03 AM EST 5:27 PM EST
Astronomical Twilight 5:29 AM EST 6:01 PM EST
Moon 4:55 PM EST (12/28) 7:01 AM EST (12/28)
Length of Visible Light 10h 13m
Length of Day
9h 10m
Full, 100% of the Moon is Illuminated
Dec 28
Full
Jan 4
Last Quarter
Jan 11
New
Jan 18
First Quarter
Jan 26
Full

Hourly Weather History & Observations

Time (EST) Temp. Windchill Dew Point Humidity Pressure Visibility Wind Dir Wind Speed Gust Speed Precip Events Conditions
12:53 AM 33.1 °F 24.4 °F 27.0 °F 78% 29.63 in 10.0 mi WNW 11.5 mph 20.7 mph 0.00 in   Overcast
1:46 AM 32.0 °F 23.0 °F 26.6 °F 80% 29.66 in 10.0 mi WNW 11.5 mph 21.9 mph N/A   Overcast
1:53 AM 32.0 °F 23.6 °F 26.1 °F 79% 29.67 in 10.0 mi WNW 10.4 mph 19.6 mph N/A   Overcast
2:53 AM 32.0 °F 21.6 °F 24.1 °F 73% 29.71 in 10.0 mi WNW 15.0 mph 21.9 mph N/A   Overcast
3:53 AM 30.0 °F 21.1 °F 21.9 °F 72% 29.73 in 10.0 mi WNW 10.4 mph 21.9 mph 0.01 in   Overcast
4:53 AM 28.9 °F 19.2 °F 21.0 °F 72% 29.77 in 10.0 mi NW 11.5 mph 27.6 mph N/A   Mostly Cloudy
5:53 AM 28.0 °F 16.1 °F 19.9 °F 72% 29.80 in 10.0 mi WNW 16.1 mph 24.2 mph N/A   Clear
6:53 AM 27.0 °F 15.2 °F 19.0 °F 72% 29.83 in 10.0 mi WNW 15.0 mph 18.4 mph N/A   Clear
7:53 AM 28.0 °F 20.0 °F 19.0 °F 69% 29.86 in 10.0 mi WNW 8.1 mph 18.4 mph N/A   Clear
8:53 AM 30.0 °F 20.0 °F 19.9 °F 66% 29.90 in 10.0 mi WNW 12.7 mph 24.2 mph N/A   Clear
9:53 AM 32.0 °F 23.6 °F 19.9 °F 61% 29.91 in 10.0 mi NW 10.4 mph 23.0 mph N/A   Clear
10:53 AM 33.1 °F 23.9 °F 19.9 °F 59% 29.91 in 10.0 mi NW 12.7 mph 20.7 mph N/A   Clear
11:53 AM 35.1 °F 26.9 °F 21.9 °F 59% 29.89 in 10.0 mi WNW 11.5 mph 21.9 mph N/A   Clear
12:53 PM 36.0 °F 27.1 °F 21.9 °F 57% 29.90 in 10.0 mi WNW 13.8 mph 21.9 mph N/A   Clear
1:53 PM 37.0 °F 30.4 °F 21.0 °F 52% 29.90 in 10.0 mi NNW 9.2 mph 19.6 mph N/A   Clear
2:53 PM 37.0 °F 28.9 °F 21.9 °F 54% 29.92 in 10.0 mi WNW 12.7 mph 20.7 mph N/A   Clear
3:53 PM 36.0 °F 30.3 °F 21.9 °F 57% 29.94 in 10.0 mi WNW 6.9 mph - N/A   Clear
4:53 PM 32.0 °F 27.5 °F 21.9 °F 66% 29.96 in 10.0 mi WNW 4.6 mph - N/A   Clear
5:53 PM 32.0 °F - 21.0 °F 64% 29.98 in 10.0 mi Calm Calm - N/A   Clear
6:53 PM 30.0 °F 25.2 °F 21.0 °F 69% 30.01 in 10.0 mi West 4.6 mph - N/A   Clear
7:53 PM 30.0 °F 24.1 °F 21.9 °F 72% 30.01 in 10.0 mi WNW 5.8 mph - N/A   Clear
8:53 PM 30.0 °F 25.2 °F 21.9 °F 72% 30.01 in 10.0 mi WNW 4.6 mph - N/A   Clear
9:53 PM 28.9 °F 25.2 °F 21.9 °F 75% 30.01 in 10.0 mi West 3.5 mph - N/A   Clear
10:53 PM 28.4 °F - 21.2 °F 74% 30.01 in 10.0 mi Calm Calm - N/A   Clear
11:53 PM 27.0 °F 21.6 °F 21.0 °F 78% 30.02 in 10.0 mi West 4.6 mph - N/A   Clear